EDT,Max TemperatureF,Mean TemperatureF,Min TemperatureF,Max Dew PointF,MeanDew PointF,Min DewpointF,Max Humidity, Mean Humidity, Min Humidity, Max Sea Level PressureIn, Mean Sea Level PressureIn, Min Sea Level PressureIn, Max VisibilityMiles, Mean VisibilityMiles, Min VisibilityMiles, Max Wind SpeedMPH, Mean Wind SpeedMPH, Max Gust SpeedMPH,PrecipitationIn, CloudCover, Events, WindDirDegrees
2013-5-1,68,56,44,51,46,39,100,85,37,30.47,30.37,30.31,10,10,10,17,7,20,0.00,0,,69
2013-5-2,66,55,44,50,47,41,100,88,42,30.48,30.43,30.37,10,9,4,14,4,20,0.00,4,,79
2013-5-3,62,53,44,49,45,41,100,84,48,30.42,30.38,30.35,10,10,10,16,5,29,0.00,2,,99
2013-5-4,66,56,44,48,45,39,100,84,42,30.37,30.31,30.25,10,10,10,15,6,22,0.00,4,,82
2013-5-5,62,52,41,48,44,41,100,88,55,30.28,30.25,30.21,10,10,7,14,5,25,0.00,3,,67
2013-5-6,60,52,44,57,50,39,100,98,48,30.22,30.18,30.12,10,5,1,15,7,21,0.00,7,Rain,71
2013-5-7,62,58,55,63,58,55,100,100,100,30.12,30.06,29.99,10,4,1,14,9,21,0.01,8,Rain,93
2013-5-8,73,63,53,59,56,52,100,92,50,30.05,30.01,29.98,10,6,0,124,5,,0.02,6,Fog-Rain,157
2013-5-9,73,62,51,63,59,52,100,86,61,30.04,29.99,29.96,10,5,0,10,2,16,0.04,6,Fog-Rain,243
2013-5-10,84,69,54,65,60,54,100,84,40,30.05,30.02,29.93,10,9,5,13,1,17,0.00,2,,214
2013-5-11,77,70,62,68,65,63,100,94,65,30.00,29.87,29.75,10,8,3,24,8,31,0.59,5,Rain-Thunderstorm,206
2013-5-12,64,59,54,63,52,32,100,78,34,30.05,29.85,29.76,10,9,5,18,4,29,0.20,5,Rain,321
2013-5-13,60,52,43,41,34,28,81,53,34,30.18,30.10,30.05,10,10,10,18,8,26,0.00,1,,326
2013-5-14,62,50,39,47,35,32,79,61,37,30.24,30.19,30.11,10,10,10,14,3,18,0.00,1,,345
2013-5-15,80,66,53,65,54,46,94,77,50,30.13,29.98,29.74,10,10,10,15,8,21,0.00,4,Rain,182
2013-5-16,84,74,64,64,62,59,94,69,48,29.93,29.84,29.78,10,10,10,13,4,17,0.00,2,,282
2013-5-17,82,70,58,61,55,45,96,66,32,30.20,30.06,29.94,10,10,10,12,3,,0.00,0,,3
2013-5-18,66,62,57,59,56,51,100,84,68,30.29,30.25,30.21,10,9,4,12,6,,0.00,5,Rain,146
2013-5-19,80,70,59,69,63,59,100,96,61,30.25,30.21,30.14,10,6,2,7,4,,0.01,7,,131
2013-5-20,82,74,65,72,68,66,100,94,62,30.17,30.11,30.04,10,8,5,12,7,17,0.01,4,Rain,208
2013-5-21,82,74,67,70,69,68,100,93,66,30.05,30.01,29.94,10,10,10,12,7,16,0.00,5,,226
2013-5-22,84,76,69,72,71,69,100,91,66,29.99,29.94,29.90,10,9,7,14,8,21,0.00,4,,216
2013-5-23,78,74,69,72,69,68,100,87,69,29.96,29.92,29.81,10,10,10,20,11,29,0.00,5,,212
2013-5-24,69,60,50,70,58,41,100,91,67,30.13,29.88,29.78,10,9,4,20,5,29,0.03,5,Rain,332
2013-5-25,66,56,46,41,39,36,71,59,40,30.16,30.13,30.10,10,10,10,22,15,32,0.00,2,,327
2013-5-26,71,60,50,48,41,38,84,58,33,30.24,30.19,30.16,10,10,10,17,6,25,0.00,0,,316
2013-5-27,75,61,47,53,48,43,100,72,33,30.31,30.27,30.23,10,10,10,7,1,,0.00,2,,335
2013-5-28,82,71,60,69,60,52,100,80,58,30.25,30.20,30.12,10,10,7,14,4,21,0.00,4,Rain-Thunderstorm,188
2013-5-29,89,78,67,70,68,66,100,83,49,30.18,30.14,30.12,10,10,10,14,8,17,0.00,1,,220
2013-5-30,89,78,68,72,68,66,94,77,52,30.23,30.19,30.16,10,10,10,13,5,,0.00,0,,228
2013-5-31,91,79,67,71,69,66,100,82,46,30.20,30.17,30.09,10,10,10,16,3,21,0.00,1,,210